{"data":{"norad_id":55350,"intl_designator":"2023-013V","name":"STARLINK-5668","alt_names":[],"object_type":"PAYLOAD","status":"ACTIVE","operator":null,"country":"US","launch_date":"2023-01-26","launch_site_code":"AFETR","launch_vehicle":null,"mission":null,"orbit_class":"UNKNOWN","rcs_meters":null,"size_class":null,"mass_kg":null,"dimensions":null,"purposes":["comms"],"wikipedia_slug":null,"has_3d_model":false,"image_url":null,"decayed_at":null,"tle_current":{"epoch":"2026-09-20T09:10:27.429888Z","epoch_age_seconds":106884,"freshness":"FRESH","line1":"1 55350U 23013V   26263.38226192  .00000037  00000+0  10880-4 0  9999","line2":"2 55350  43.0050 283.4976 0001660 290.4173  69.6500 15.27577418201455","mean_motion":15.27577418,"eccentricity":0.000166,"inclination_deg":43.005,"raan_deg":283.4976,"arg_perigee_deg":290.4173,"mean_anomaly_deg":69.65,"bstar":1.088e-5,"rev_number":20145,"period_min":94.266908048781,"perigee_km":481.91786931205,"apogee_km":484.19578566278,"semimajor_km":6861.1938274874,"source":"CELESTRAK","updated_at":"2026-09-21T09:00:33.182718Z"}}}